[ hide orbit diagram ]
For accurate long-term ephemerides, please instead use our Horizons system.This orbit viewer was implemented using two-body methods, and hence should not be used for determining accurate long-term trajectories (over several years or decades) or planetary encounter circumstances.
Orbital Elements at Epoch 2459200.5 (2020-Dec-17.0) TDB
Reference: JPL 42 (heliocentric ecliptic J2000)
Element | Value | Uncertainty (1-sigma) | Units |
e | .1884720824332497 | 3.587e-08 | |
a | 3.081827362947207 | 1.2856e-08 | au |
q | 2.500988942152776 | 1.1411e-07 | au |
i | .05333298363089246 | 3.8022e-06 | deg |
node | 193.5046330194837 | 0.0035978 | deg |
peri | 164.41842031135 | 0.0035978 | deg |
M | 337.5092299659469 | 1.0597e-05 | deg |
tp | 2459323.956144901850 (2021-Apr-19.45614490) | 5.8626e-05 | TDB |
period | 1976.108959247438 5.41 | 1.2365e-05 3.385e-08 | d yr |
n | .18217618938234 | 1.14e-09 | deg/d |
Q | 3.662665783741637 | 1.5279e-08 | au |
|
| | Orbit Determination Parameters
Additional Information
|
[ show covariance matrix ]
Physical Parameter Table
Parameter |
Symbol |
Value |
Units |
Sigma |
Reference |
Notes |
absolute magnitude |
H |
12.13 |
|
n/a |
E2021B10 |
|
diameter |
diameter |
23.399 |
km |
0.039 |
urn:nasa:pds:neowise_diameters_albedos::2.0[mainbelt] (http://adsabs.harvard.edu/abs/2014ApJ...791..121M) |
|
rotation period |
rot_per |
5. |
h |
n/a |
LCDB (Rev. 2020-October); Warner et al., 2009 |
lower-limit; Incomplete or inconclusive result. Published Reference List: [Brinsfield, J.W. (2011) Minor Planet Bull. 38, 154-155.] |
geometric albedo |
albedo |
0.076 |
|
0.007 |
urn:nasa:pds:neowise_diameters_albedos::2.0[mainbelt] (http://adsabs.harvard.edu/abs/2014ApJ...791..121M) |
|
|
1383 Limburgia (1934 RV) Discovered 1934-Sep-09 by Van Gent, H. at Johannesburg (LS) |
Reference: DISCOVERY.DB | Last Updated: 2003-08-29 |
|
[ show close-approach data ]
Alternate Designations
1934 RV = 1929 UQ = 1929 VJ = A923 PA |
|
|